Hourly Data Report for March 26, 2017

All times are specified in Local Standard Time (LST). Add 1 hour to adjust for Daylight Saving Time where and when it is observed.

VICTORIA HARBOUR A
BRITISH COLUMBIA

48°25'22.000" N
123°23'15.000" W
     
1018633
YWH

Related Data

No related data is available for this station

Download Data

Hourly Data (March 2017)
Hourly Data Report for March 26, 2017
Temp Definition
°C
Dew Point Temp Definition
°C
Rel Hum Definition
%
Wind Dir Definition
10's deg

Wind Spd Definition
km/h
Visibility Definition
km
Stn Press Definition
kPa
Hmdx Definition


Wind Chill Definition


Weather Definition


TIME
00:00 Legend Double Dagger 6.2 3.0 80 36 5 LegendMM 101.53     LegendNANA
01:00 Legend Double Dagger 5.8 3.2 83 35 9 LegendMM 101.47     LegendNANA
02:00 Legend Double Dagger 5.9 3.4 84 1 8 LegendMM 101.34     LegendNANA
03:00 Legend Double Dagger 6.4 3.9 84 4 7 LegendMM 101.22     LegendNANA
04:00 Legend Double Dagger 6.2 3.4 82 36 8 LegendMM 101.14     LegendNANA
05:00 Legend Double Dagger 7.1 4.6 84 6 10 LegendMM 101.02     LegendNANA
06:00 Legend Double Dagger 7.3 3.4 76 6 9 LegendMM 100.95     LegendNANA
07:00 Legend Double Dagger 7.2 3.3 76 8 8 LegendMM 100.91     LegendNANA
08:00 Legend Double Dagger 7.7 4.1 78 11 18 LegendMM 100.81     LegendNANA
09:00 Legend Double Dagger 7.9 4.1 77 12 31 LegendMM 100.75     LegendNANA
10:00 Legend Double Dagger 7.5 4.3 80 12 28 LegendMM 100.72     LegendNANA
11:00 Legend Double Dagger 7.9 4.1 77 12 31 LegendMM 100.66     LegendNANA
12:00 Legend Double Dagger 8.1 4.3 77 11 30 LegendMM 100.63     LegendNANA
13:00 Legend Double Dagger 8.9 4.5 74 11 26 LegendMM 100.61     LegendNANA
14:00 Legend Double Dagger 8.8 4.3 73 12 28 LegendMM 100.55     LegendNANA
15:00 Legend Double Dagger 8.7 4.5 75 10 18 LegendMM 100.54     LegendNANA
16:00 Legend Double Dagger 9.0 5.0 76 10 11 LegendMM 100.53     LegendNANA
17:00 Legend Double Dagger 8.5 4.9 78 10 9 LegendMM 100.58     LegendNANA
18:00 Legend Double Dagger 8.3 5.3 81 12 3 LegendMM 100.62     LegendNANA
19:00 Legend Double Dagger 8.0 5.3 83 5 6 LegendMM 100.67     LegendNANA
20:00 Legend Double Dagger 7.3 5.9 91 35 7 LegendMM 100.71     LegendNANA
21:00 Legend Double Dagger 6.7 5.8 94 35 5 LegendMM 100.78     LegendNANA
22:00 Legend Double Dagger 7.2 6.0 92 2 6 LegendMM 100.85     LegendNANA
23:00 Legend Double Dagger 6.9 5.7 92 28 2 LegendMM 100.90     LegendNANA

Notes on Data Quality.

Legend

  • E = Estimated
  • M = Missing
  • NA = Not Available
  • ‡ = Partner data that is not subject to review by the National Climate Archives
Date modified: